This demonstration page uses our WeatherBlox Daily Observations layout. Learn more.

Left ArrowRight Arrow

44.8408, -93.29828

Hourly Observations for May 4, 2016

Temp ( °F °C ) Dew Point ( °F °C ) Humidity (%) Winds ( mph kmh ) Pressure ( in mb ) Visibility ( mi km ) Precip ( " mm )
12:53 am 00:53 Clear 56 13.3 31 -0.6 39 39 NNE 13 20 29.83 1010 10 16 0.00 0.00
1:53 am 01:53 Clear 54 12.2 33 0.6 45 45 NE 14 22 29.87 1011 10 16 0.00 0.00
2:53 am 02:53 Clear 52 11.1 32 0 47 47 NNE 14 22 29.90 1012 10 16 0.00 0.00
3:53 am 03:53 Clear 50 10 32 0 50 50 NNE 9 15 29.91 1013 10 16 0.00 0.00
4:53 am 04:53 Clear 47 8.3 32 0 56 56 N 5 7 29.93 1014 10 16 0.00 0.00
5:53 am 05:53 Clear 46 7.8 33 0.6 61 61 N 7 11 29.94 1014 10 16 0.00 0.00
6:53 am 06:53 Sunny 48 8.9 33 0.6 56 56 N 8 13 29.96 1015 10 16 0.00 0.00
7:53 am 07:53 Sunny 51 10.6 33 0.6 50 50 N 13 20 29.98 1015 10 16 0.00 0.00
8:53 am 08:53 Sunny 53 11.7 33 0.6 47 47 N 9 15 29.99 1016 10 16 0.00 0.00
9:53 am 09:53 Mostly Sunny 55 12.8 33 0.6 44 44 NNW 14 22 29.99 1016 10 16 0.00 0.00
10:53 am 10:53 Partly Cloudy 59 15 34 1.1 39 39 NNW 15 24 29.98 1015 10 16 0.00 0.00
11:53 am 11:53 Partly Cloudy 60 15.6 33 0.6 36 36 NNW 15 24 29.98 1015 10 16 0.00 0.00
12:53 pm 12:53 Mostly Sunny 63 17.2 32 0 31 31 N 15 24 29.97 1015 10 16 0.00 0.00
1:53 pm 13:53 Sunny 64 17.8 30 -1.1 28 28 NW 18 30 29.95 1014 10 16 0.00 0.00
2:53 pm 14:53 Sunny 65 18.3 26 -3.3 23 23 N 15 24 29.94 1014 10 16 0.00 0.00
3:53 pm 15:53 Sunny 66 18.9 29 -1.7 25 25 NNW 15 24 29.94 1014 10 16 0.00 0.00
4:53 pm 16:53 Sunny 66 18.9 27 -2.8 23 23 NW 14 22 29.94 1014 10 16 0.00 0.00
5:53 pm 17:53 Sunny 65 18.3 25 -3.9 22 22 N 13 20 29.94 1014 10 16 0.00 0.00
6:53 pm 18:53 Sunny 65 18.3 24 -4.4 21 21 N 10 17 29.94 1014 10 16 0.00 0.00
7:53 pm 19:53 Mostly Sunny 62 16.7 22 -5.6 21 21 N 12 19 29.95 1014 10 16 0.00 0.00
8:53 pm 20:53 Partly Cloudy 58 14.4 24 -4.4 27 27 N 5 7 29.96 1015 10 16 0.00 0.00
9:53 pm 21:53 Partly Cloudy 58 14.4 23 -5 26 26 VRB 3 6 29.98 1015 10 16 0.00 0.00
10:53 pm 22:53 Mostly Clear 55 12.8 31 -0.6 40 40 N 3 6 29.98 1015 10 16 0.00 0.00
11:53 pm 23:53 Clear 52 11.1 29 -1.7 41 41 E 6 9 29.99 1016 10 16 0.00 0.00

Powered by AerisWeather